Tracking 29892 objects as of 21-Nov-2024
HD Live streaming from Space Station
objects crossing your sky now

STARLINK-31418

Track STARLINK-31418 now!
10-day predictions
STARLINK-31418 is classified as:


NORAD ID: 59251
Int'l Code: 2024-049W
Perigee: 411.5 km
Apogee: 424.2 km
Inclination: 43.0 °
Period: 92.8 minutes
Semi major axis: 6788 km
RCS: Unknown
Launch date: March 16, 2024
Source: United States (US)
Launch site: AIR FORCE EASTERN TEST RANGE (AFETR)
Your satellite tracking list
Your tracking list is empty




NASA's NSSDC Master Catalog

Two Line Element Set (TLE):
1 59251U 24049W   24325.35077169  .00059287  00000-0  95518-3 0  9997
2 59251  43.0006 311.7302 0009394 138.8149 221.3422 15.52061440 39740
Source of the keplerian elements: AFSPC